| time (UTC) | temp F | wind direction | speed MPH | gust MPH | rain 1hr in | rain 24hr in | rain mn in | humidity % | barometer mb |
| 20260503203655 | 71 | 36 | 2.0 | 3.0 | 0.00 | 0.01 | 0.01 | 37 | 1003.1 |
| 20260503203153 | 71 | 161 | 3.0 | 5.0 | 0.00 | 0.01 | 0.01 | 37 | 1003.1 |
| 20260503202650 | 71 | 197 | 3.0 | 5.0 | 0.00 | 0.01 | 0.01 | 37 | 1003.4 |
| 20260503202148 | 72 | 247 | 3.0 | 3.0 | 0.00 | 0.01 | 0.01 | 38 | 1003.4 |
| 20260503201646 | 71 | 180 | 1.0 | 1.0 | 0.00 | 0.01 | 0.01 | 37 | 1003.4 |
| 20260503201143 | 71 | 302 | 2.0 | 3.0 | 0.00 | 0.01 | 0.01 | 34 | 1003.1 |
| 20260503200639 | 71 | 223 | 2.0 | 3.0 | 0.00 | 0.01 | 0.01 | 35 | 1003.4 |
| 20260503200135 | 71 | 164 | 1.0 | 2.0 | 0.00 | 0.01 | 0.01 | 36 | 1003.4 |
| 20260503195633 | 71 | 203 | 3.0 | 5.0 | 0.00 | 0.01 | 0.01 | 37 | 1003.1 |
| 20260503195130 | 71 | 204 | 3.0 | 3.0 | 0.00 | 0.01 | 0.01 | 38 | 1003.4 |
| 20260503194627 | 71 | 242 | 5.0 | 8.0 | 0.00 | 0.01 | 0.01 | 37 | 1003.7 |
| 20260503194122 | 71 | 126 | 2.0 | 3.0 | 0.00 | 0.01 | 0.01 | 38 | 1003.4 |
| 20260503193619 | 71 | 300 | 3.0 | 3.0 | 0.00 | 0.01 | 0.01 | 40 | 1003.4 |
| 20260503193114 | 71 | 198 | 3.0 | 5.0 | 0.00 | 0.01 | 0.01 | 41 | 1003.7 |
| 20260503192610 | 71 | 156 | 1.0 | 2.0 | 0.00 | 0.01 | 0.01 | 42 | 1003.7 |
| 20260503192106 | 71 | 31 | 3.0 | 3.0 | 0.00 | 0.01 | 0.01 | 43 | 1003.4 |
| 20260503191603 | 71 | 277 | 3.0 | 5.0 | 0.00 | 0.01 | 0.01 | 42 | 1003.7 |
| 20260503191100 | 70 | 195 | 2.0 | 2.0 | 0.00 | 0.01 | 0.01 | 44 | 1003.4 |
| 20260503190557 | 71 | 174 | 4.0 | 7.0 | 0.00 | 0.01 | 0.01 | 42 | 1003.7 |
| 20260503190054 | 71 | 139 | 2.0 | 3.0 | 0.00 | 0.01 | 0.01 | 43 | 1003.7 |
| 20260503185551 | 70 | 175 | 0.0 | 1.0 | 0.00 | 0.01 | 0.01 | 43 | 1003.7 |
| 20260503185050 | 69 | 202 | 2.0 | 2.0 | 0.00 | 0.01 | 0.01 | 42 | 1003.7 |
| 20260503184546 | 70 | 176 | 3.0 | 3.0 | 0.00 | 0.01 | 0.01 | 43 | 1003.7 |
| 20260503184043 | 70 | 181 | 1.0 | 1.0 | 0.00 | 0.01 | 0.01 | 45 | 1003.7 |
| 20260503183540 | 70 | 220 | 3.0 | 3.0 | 0.00 | 0.01 | 0.01 | 44 | 1003.4 |
| 20260503183037 | 70 | 262 | 3.0 | 3.0 | 0.00 | 0.01 | 0.01 | 43 | 1003.7 |
| 20260503182536 | 69 | 88 | 3.0 | 6.0 | 0.00 | 0.01 | 0.01 | 40 | 1003.7 |
| 20260503182033 | 69 | 107 | 3.0 | 5.0 | 0.00 | 0.01 | 0.01 | 42 | 1003.7 |
| 20260503181530 | 70 | 221 | 3.0 | 3.0 | 0.00 | 0.01 | 0.01 | 41 | 1003.7 |
| 20260503181026 | 69 | 204 | 2.0 | 2.0 | 0.00 | 0.01 | 0.01 | 44 | 1003.7 |
| 20260503180523 | 69 | 265 | 1.0 | 1.0 | 0.00 | 0.01 | 0.01 | 42 | 1003.7 |
| 20260503180021 | 70 | 131 | 2.0 | 2.0 | 0.00 | 0.01 | 0.01 | 44 | 1004.2 |
| 20260503175518 | 71 | 0 | 3.0 | 3.0 | 0.00 | 0.01 | 0.01 | 42 | 1004.2 |
| 20260503175015 | 69 | 237 | 2.0 | 2.0 | 0.00 | 0.01 | 0.01 | 44 | 1004.2 |
| 20260503174513 | 69 | 107 | 2.0 | 5.0 | 0.00 | 0.01 | 0.01 | 45 | 1004.2 |
| 20260503174008 | 69 | 192 | 2.0 | 3.0 | 0.00 | 0.01 | 0.01 | 45 | 1004.2 |
| 20260503173503 | 68 | 127 | 3.0 | 3.0 | 0.00 | 0.01 | 0.01 | 46 | 1004.2 |
| 20260503173000 | 68 | 134 | 1.0 | 2.0 | 0.00 | 0.01 | 0.01 | 48 | 1004.2 |
| 20260503172458 | 68 | 163 | 2.0 | 3.0 | 0.00 | 0.01 | 0.01 | 47 | 1004.2 |
| 20260503171954 | 68 | 53 | 4.0 | 5.0 | 0.00 | 0.01 | 0.01 | 47 | 1004.2 |
| 20260503171451 | 68 | 52 | 3.0 | 3.0 | 0.00 | 0.01 | 0.01 | 47 | 1004.5 |
| 20260503170948 | 68 | 325 | 4.0 | 5.0 | 0.00 | 0.01 | 0.01 | 47 | 1004.2 |
| 20260503170444 | 67 | 152 | 2.0 | 3.0 | 0.00 | 0.01 | 0.01 | 49 | 1004.2 |
| 20260503150837 | 63 | 257 | 4.0 | 6.0 | 0.00 | 0.01 | 0.01 | 51 | 1004.5 |
| 20260503150333 | 63 | 183 | 3.0 | 3.0 | 0.00 | 0.01 | 0.01 | 51 | 1004.5 |
| 20260503140257 | 59 | 218 | 4.0 | 5.0 | 0.00 | 0.01 | 0.01 | 60 | 1004.9 |
| 20260503131227 | 56 | 212 | 3.0 | 3.0 | 0.00 | 0.01 | 0.01 | 64 | 1004.9 |
| 20260503130724 | 56 | 199 | 2.0 | 2.0 | 0.00 | 0.01 | 0.01 | 63 | 1004.5 |
| 20260503130221 | 56 | 202 | 2.0 | 2.0 | 0.00 | 0.01 | 0.01 | 64 | 1004.9 |
| 20260503120147 | 43 | 153 | 0.0 | 0.0 | 0.00 | 0.01 | 0.01 | 99 | 1004.9 |
| 20260503110615 | 42 | 141 | 1.0 | 1.0 | 0.00 | 0.01 | 0.01 | 98 | 1004.9 |
| 20260503110112 | 43 | 166 | 0.0 | 0.0 | 0.00 | 0.01 | 0.01 | 98 | 1004.9 |
| 20260503090502 | 46 | 148 | 1.0 | 1.0 | 0.01 | 0.01 | 0.01 | 92 | 1005.9 |
| 20260503081428 | 52 | 171 | 1.0 | 1.0 | 0.00 | 0.00 | 0.00 | 68 | 1005.9 |
| 20260503080925 | 53 | 173 | 2.0 | 2.0 | 0.00 | 0.00 | 0.00 | 66 | 1006.2 |
| 20260503080422 | 53 | 165 | 1.0 | 1.0 | 0.00 | 0.00 | 0.00 | 66 | 1005.9 |
| 20260503072858 | 54 | 179 | 3.0 | 3.0 | 0.00 | 0.00 | 0.00 | 63 | 1006.2 |
| 20260503072355 | 54 | 165 | 3.0 | 3.0 | 0.00 | 0.00 | 0.00 | 64 | 1006.2 |
| 20260503071852 | 54 | 179 | 2.0 | 2.0 | 0.00 | 0.00 | 0.00 | 64 | 1006.6 |
| 20260503071349 | 54 | 177 | 2.0 | 2.0 | 0.00 | 0.00 | 0.00 | 65 | 1006.6 |
| 20260503070845 | 54 | 175 | 2.0 | 2.0 | 0.00 | 0.00 | 0.00 | 64 | 1006.6 |
| 20260503070343 | 54 | 173 | 1.0 | 2.0 | 0.00 | 0.00 | 0.00 | 64 | 1006.6 |
| 20260503060309 | 57 | 181 | 1.0 | 1.0 | 0.00 | 0.00 | 0.00 | 60 | 1007.2 |
| 20260503054755 | 57 | 176 | 2.0 | 2.0 | 0.00 | 0.00 | 0.00 | 58 | 1007.7 |
| 20260503054252 | 57 | 177 | 2.0 | 2.0 | 0.00 | 0.00 | 0.00 | 58 | 1007.7 |
| 20260503053750 | 58 | 179 | 2.0 | 2.0 | 0.00 | 0.00 | 0.00 | 57 | 1007.7 |
| 20260503053249 | 57 | 206 | 3.0 | 3.0 | 0.00 | 0.00 | 0.00 | 56 | 1008.0 |
| 20260503052744 | 58 | 169 | 1.0 | 2.0 | 0.00 | 0.00 | 0.00 | 59 | 1008.0 |
| 20260503052241 | 58 | 186 | 2.0 | 2.0 | 0.00 | 0.00 | 0.00 | 57 | 1008.0 |
| 20260503051736 | 58 | 192 | 2.0 | 2.0 | 0.00 | 0.00 | 0.00 | 58 | 1008.0 |
| 20260503051234 | 58 | 197 | 1.0 | 2.0 | 0.00 | 0.00 | 0.00 | 57 | 1008.0 |
| 20260503050730 | 58 | 195 | 1.0 | 2.0 | 0.00 | 0.00 | 0.00 | 58 | 1008.0 |
| 20260503050227 | 56 | 178 | 3.0 | 3.0 | 0.00 | 0.00 | 0.00 | 60 | 1008.4 |
| 20260503045725 | 56 | 165 | 1.0 | 2.0 | 0.00 | 0.00 | 0.00 | 61 | 1008.7 |
| 20260503045222 | 56 | 186 | 1.0 | 1.0 | 0.00 | 0.00 | 0.00 | 61 | 1008.7 |
| 20260503044718 | 57 | 190 | 1.0 | 1.0 | 0.00 | 0.00 | 0.00 | 59 | 1008.4 |
| 20260503044216 | 57 | 202 | 1.0 | 1.0 | 0.00 | 0.00 | 0.00 | 57 | 1008.4 |
| 20260503043712 | 58 | 206 | 2.0 | 2.0 | 0.00 | 0.00 | 0.00 | 56 | 1008.4 |
| 20260503043210 | 57 | 181 | 0.0 | 1.0 | 0.00 | 0.00 | 0.00 | 58 | 1008.7 |
| 20260503042706 | 57 | 199 | 2.0 | 2.0 | 0.00 | 0.00 | 0.00 | 57 | 1008.4 |
| 20260503042203 | 57 | 211 | 3.0 | 3.0 | 0.00 | 0.00 | 0.00 | 56 | 1008.4 |
| 20260503041658 | 58 | 213 | 3.0 | 3.0 | 0.00 | 0.00 | 0.00 | 56 | 1008.4 |
| 20260503041156 | 57 | 178 | 2.0 | 2.0 | 0.00 | 0.00 | 0.00 | 57 | 1008.7 |
| 20260503040654 | 57 | 184 | 2.0 | 2.0 | 0.00 | 0.00 | 0.00 | 58 | 1008.7 |
| 20260503040151 | 57 | 205 | 2.0 | 2.0 | 0.00 | 0.00 | 0.00 | 56 | 1008.4 |
| 20260503035647 | 57 | 184 | 1.0 | 1.0 | 0.00 | 0.00 | 0.00 | 56 | 1008.7 |
| 20260503035139 | 57 | 182 | 1.0 | 2.0 | 0.00 | 0.00 | 0.00 | 57 | 1008.7 |
| 20260503034637 | 57 | 184 | 1.0 | 1.0 | 0.00 | 0.00 | 0.00 | 56 | 1008.7 |
| 20260503034134 | 57 | 185 | 1.0 | 1.0 | 0.00 | 0.00 | 0.00 | 56 | 1009.0 |
| 20260503033630 | 57 | 185 | 2.0 | 2.0 | 0.00 | 0.00 | 0.00 | 56 | 1008.7 |
| 20260503033128 | 57 | 186 | 2.0 | 2.0 | 0.00 | 0.00 | 0.00 | 56 | 1009.0 |
| 20260503032627 | 57 | 181 | 2.0 | 2.0 | 0.00 | 0.00 | 0.00 | 55 | 1009.0 |
| 20260503032125 | 57 | 181 | 1.0 | 2.0 | 0.00 | 0.00 | 0.00 | 55 | 1009.0 |
| 20260503031622 | 57 | 184 | 1.0 | 1.0 | 0.00 | 0.00 | 0.00 | 54 | 1009.0 |
| 20260503031119 | 57 | 180 | 3.0 | 3.0 | 0.00 | 0.00 | 0.00 | 53 | 1009.0 |
| 20260503030615 | 57 | 179 | 2.0 | 2.0 | 0.00 | 0.00 | 0.00 | 54 | 1009.4 |
| 20260503030112 | 57 | 185 | 1.0 | 2.0 | 0.00 | 0.00 | 0.00 | 54 | 1009.4 |
| 20260503025608 | 57 | 175 | 1.0 | 1.0 | 0.00 | 0.00 | 0.00 | 53 | 1009.4 |
| 20260503025107 | 57 | 181 | 1.0 | 1.0 | 0.00 | 0.00 | 0.00 | 53 | 1009.4 |
| 20260503024602 | 58 | 183 | 3.0 | 3.0 | 0.00 | 0.00 | 0.00 | 52 | 1009.7 |
| 20260503024100 | 58 | 179 | 3.0 | 3.0 | 0.00 | 0.00 | 0.00 | 52 | 1009.4 |
| 20260503023556 | 58 | 187 | 3.0 | 3.0 | 0.00 | 0.00 | 0.00 | 51 | 1009.7 |
| 20260503023054 | 58 | 185 | 1.0 | 2.0 | 0.00 | 0.00 | 0.00 | 52 | 1009.7 |
| 20260503022550 | 58 | 188 | 1.0 | 2.0 | 0.00 | 0.00 | 0.00 | 51 | 1009.7 |
| 20260503022044 | 57 | 191 | 2.0 | 2.0 | 0.00 | 0.00 | 0.00 | 53 | 1009.7 |
| 20260503021542 | 57 | 181 | 2.0 | 2.0 | 0.00 | 0.00 | 0.00 | 52 | 1009.7 |
| 20260503021038 | 57 | 182 | 2.0 | 2.0 | 0.00 | 0.00 | 0.00 | 51 | 1009.4 |
| 20260503020536 | 57 | 179 | 1.0 | 1.0 | 0.00 | 0.00 | 0.00 | 54 | 1009.7 |
| 20260503020033 | 57 | 178 | 2.0 | 2.0 | 0.00 | 0.00 | 0.00 | 53 | 1010.0 |
| 20260503015529 | 57 | 182 | 1.0 | 1.0 | 0.00 | 0.00 | 0.00 | 56 | 1009.7 |
| 20260503015027 | 57 | 183 | 1.0 | 1.0 | 0.00 | 0.00 | 0.00 | 55 | 1009.7 |
| 20260503014522 | 57 | 175 | 0.0 | 0.0 | 0.00 | 0.00 | 0.00 | 53 | 1009.4 |
| 20260503014021 | 57 | 183 | 0.0 | 0.0 | 0.00 | 0.00 | 0.00 | 53 | 1009.4 |
| 20260503013518 | 57 | 180 | 0.0 | 0.0 | 0.00 | 0.00 | 0.00 | 52 | 1009.4 |
| 20260503013015 | 57 | 135 | 1.0 | 1.0 | 0.00 | 0.00 | 0.00 | 54 | 1009.7 |
| 20260503012513 | 58 | 179 | 0.0 | 0.0 | 0.00 | 0.00 | 0.00 | 54 | 1009.7 |
| 20260503012009 | 58 | 184 | 3.0 | 3.0 | 0.00 | 0.00 | 0.00 | 49 | 1010.0 |
| 20260503011506 | 58 | 181 | 1.0 | 1.0 | 0.00 | 0.00 | 0.00 | 49 | 1009.7 |
| 20260503011003 | 58 | 184 | 2.0 | 2.0 | 0.00 | 0.00 | 0.00 | 48 | 1009.7 |
| 20260503010459 | 58 | 182 | 1.0 | 1.0 | 0.00 | 0.00 | 0.00 | 50 | 1010.0 |
| 20260503005957 | 58 | 176 | 1.0 | 1.0 | 0.00 | 0.00 | 0.00 | 48 | 1009.7 |
| 20260503005454 | 59 | 176 | 1.0 | 1.0 | 0.00 | 0.00 | 0.00 | 48 | 1009.7 |
| 20260503004950 | 59 | 180 | 1.0 | 2.0 | 0.00 | 0.00 | 0.00 | 48 | 1009.7 |
| 20260503004447 | 59 | 181 | 1.0 | 1.0 | 0.00 | 0.00 | 0.00 | 46 | 1010.0 |
| 20260503003945 | 59 | 184 | 1.0 | 1.0 | 0.00 | 0.00 | 0.00 | 46 | 1010.0 |
| 20260503003441 | 60 | 180 | 1.0 | 1.0 | 0.00 | 0.00 | 0.00 | 45 | 1010.0 |
| 20260503002938 | 60 | 190 | 2.0 | 2.0 | 0.00 | 0.00 | 0.00 | 45 | 1010.0 |
| 20260503002436 | 60 | 198 | 1.0 | 2.0 | 0.00 | 0.00 | 0.00 | 44 | 1010.0 |
| 20260503001932 | 60 | 185 | 1.0 | 2.0 | 0.00 | 0.00 | 0.00 | 44 | 1010.0 |
| 20260503001429 | 60 | 183 | 2.0 | 2.0 | 0.00 | 0.00 | 0.00 | 44 | 1009.7 |
| 20260503000926 | 60 | 191 | 2.0 | 2.0 | 0.00 | 0.00 | 0.00 | 44 | 1010.0 |
| 20260503000423 | 60 | 197 | 1.0 | 2.0 | 0.00 | 0.00 | 0.00 | 45 | 1010.4 |
| 20260502235920 | 60 | 202 | 1.0 | 2.0 | 0.00 | 0.00 | 0.00 | 45 | 1010.4 |
| 20260502235417 | 60 | 198 | 2.0 | 2.0 | 0.00 | 0.00 | 0.00 | 44 | 1010.4 |
| 20260502234915 | 60 | 207 | 2.0 | 2.0 | 0.00 | 0.00 | 0.00 | 42 | 1010.4 |
| 20260502234411 | 60 | 217 | 2.0 | 2.0 | 0.00 | 0.00 | 0.00 | 44 | 1010.4 |
| 20260502233908 | 60 | 204 | 4.0 | 5.0 | 0.00 | 0.00 | 0.00 | 43 | 1010.0 |
| 20260502233403 | 61 | 156 | 1.0 | 2.0 | 0.00 | 0.00 | 0.00 | 46 | 1010.4 |
| 20260502232901 | 61 | 222 | 4.0 | 5.0 | 0.00 | 0.00 | 0.00 | 43 | 1010.4 |
| 20260502232357 | 61 | 196 | 3.0 | 3.0 | 0.00 | 0.00 | 0.00 | 43 | 1010.4 |
| 20260502231854 | 61 | 236 | 3.0 | 3.0 | 0.00 | 0.00 | 0.00 | 43 | 1010.7 |
| 20260502231352 | 61 | 205 | 3.0 | 3.0 | 0.00 | 0.00 | 0.00 | 43 | 1010.4 |
| 20260502230849 | 61 | 206 | 3.0 | 3.0 | 0.00 | 0.00 | 0.00 | 43 | 1010.7 |
| 20260502230347 | 61 | 221 | 5.0 | 6.0 | 0.00 | 0.00 | 0.00 | 42 | 1010.7 |
| 20260502225844 | 61 | 228 | 3.0 | 5.0 | 0.00 | 0.00 | 0.00 | 42 | 1011.1 |
| 20260502225340 | 62 | 228 | 4.0 | 5.0 | 0.00 | 0.00 | 0.00 | 42 | 1011.1 |
| 20260502224837 | 61 | 192 | 1.0 | 1.0 | 0.00 | 0.00 | 0.00 | 43 | 1011.1 |
| 20260502224333 | 62 | 214 | 5.0 | 7.0 | 0.00 | 0.00 | 0.00 | 41 | 1011.5 |
| 20260502223831 | 61 | 223 | 5.0 | 6.0 | 0.00 | 0.00 | 0.00 | 42 | 1011.1 |
| 20260502223329 | 61 | 219 | 4.0 | 6.0 | 0.00 | 0.00 | 0.00 | 41 | 1011.5 |
| 20260502222826 | 61 | 178 | 5.0 | 6.0 | 0.00 | 0.00 | 0.00 | 42 | 1011.1 |
| 20260502222324 | 62 | 169 | 2.0 | 3.0 | 0.00 | 0.00 | 0.00 | 43 | 1011.1 |
| 20260502221819 | 61 | 212 | 6.0 | 7.0 | 0.00 | 0.00 | 0.00 | 42 | 1011.5 |
| 20260502221315 | 62 | 198 | 1.0 | 1.0 | 0.00 | 0.00 | 0.00 | 45 | 1011.1 |
| 20260502220813 | 61 | 213 | 2.0 | 2.0 | 0.00 | 0.00 | 0.00 | 44 | 1011.1 |
| 20260502220309 | 62 | 211 | 3.0 | 3.0 | 0.00 | 0.00 | 0.00 | 41 | 1011.5 |
| 20260502215806 | 62 | 210 | 3.0 | 3.0 | 0.00 | 0.00 | 0.00 | 42 | 1011.5 |
| 20260502215305 | 62 | 193 | 0.0 | 1.0 | 0.00 | 0.00 | 0.00 | 42 | 1011.5 |
| 20260502214800 | 60 | 223 | 1.0 | 1.0 | 0.00 | 0.00 | 0.00 | 44 | 1011.8 |
| 20260502214256 | 60 | 274 | 2.0 | 2.0 | 0.00 | 0.00 | 0.00 | 43 | 1011.8 |
| 20260502213754 | 63 | 65 | 1.0 | 1.0 | 0.00 | 0.00 | 0.00 | 42 | 1011.8 |
| 20260502213251 | 62 | 213 | 1.0 | 1.0 | 0.00 | 0.00 | 0.00 | 42 | 1011.5 |
| 20260502212750 | 63 | 129 | 1.0 | 2.0 | 0.00 | 0.00 | 0.00 | 42 | 1011.8 |
| 20260502212248 | 63 | 206 | 4.0 | 5.0 | 0.00 | 0.00 | 0.00 | 41 | 1012.2 |
| 20260502211743 | 62 | 256 | 3.0 | 5.0 | 0.00 | 0.00 | 0.00 | 41 | 1012.2 |
| 20260502211240 | 63 | 202 | 2.0 | 3.0 | 0.00 | 0.00 | 0.00 | 42 | 1012.2 |
| 20260502210737 | 63 | 285 | 3.0 | 3.0 | 0.00 | 0.00 | 0.00 | 40 | 1012.2 |
| 20260502210229 | 63 | 329 | 2.0 | 3.0 | 0.00 | 0.00 | 0.00 | 41 | 1012.5 |
| 20260502205726 | 63 | 213 | 5.0 | 7.0 | 0.00 | 0.00 | 0.00 | 42 | 1012.2 |
| 20260502205222 | 60 | 186 | 1.0 | 1.0 | 0.00 | 0.00 | 0.00 | 43 | 1012.5 |
| 20260502204719 | 63 | 222 | 5.0 | 6.0 | 0.00 | 0.00 | 0.00 | 40 | 1012.5 |
| 20260502204217 | 63 | 168 | 3.0 | 3.0 | 0.00 | 0.00 | 0.00 | 42 | 1012.5 |